• Join FlightAware (Why Join?)
  • Login
  • US Flag 
07:45AM EST


 

Airport Tracker/Info


-or-


 

Live Flight TrackerFlight Track Log ✈ LOG6847 ✈ 16-Sep-2013 ✈ EGPF / GLA - EGEC / CAL

Flight Track Log - Related Links

Times and Time Zones

All times are in EDT time to prevent confusion due to time zone crossing. See the LOG6847 flight status page for this flight to view local times or setup timezone preferences in your user account.

Time Position Orientation Groundspeed Altitude Reporting Facility
EDT Latitude Longitude Course Direction KTS MPH feet Rate Location/Type
11:27AM 55.8776 -4.4203 50° Northeast 1 1 600  Level FlightAware UK
11:27AM 55.8774 -4.4222 257° West 1 1 600  Level FlightAware UK
11:27AM 55.8774 -4.4229 271° West 1 1 600  Level FlightAware UK
11:28AM 55.8739 -4.4273 215° Southwest 1 1 600 833 Level FlightAware UK
11:28AM 55.8694 -4.4372 231° Southwest 1 1 1,100 1,000 Climbing FlightAware UK
11:28AM 55.8660 -4.4470 238° Southwest 1 1 1,200 667 Climbing FlightAware UK
11:29AM 55.8676 -4.4604 282° West 1 1 1,500 833 Climbing FlightAware UK
11:29AM 55.8710 -4.4714 299° West 1 1 1,700 833 Climbing FlightAware UK
11:29AM 55.8716 -4.4834 275° West 1 1 2,000 833 Climbing FlightAware UK
11:29AM 55.8699 -4.4964 257° West 1 1 2,200 857 Climbing FlightAware UK
11:30AM 55.8622 -4.5105 225° Southwest 1 1 2,600 1,000 Climbing FlightAware UK
11:30AM 55.8539 -4.5217 217° Southwest 1 1 3,000 1,000 Climbing FlightAware UK
11:31AM 55.8491 -4.5316 229° Southwest 1 1 3,300 1,167 Climbing FlightAware UK
11:31AM 55.8454 -4.5417 237° Southwest 1 1 3,700 833 Climbing FlightAware UK
11:31AM 55.8418 -4.5523 239° Southwest 1 1 3,800 833 Climbing FlightAware UK
11:31AM 55.8377 -4.5630 236° Southwest 1 1 4,200 1,000 Climbing FlightAware UK
11:32AM 55.8336 -4.5735 236° Southwest 1 1 4,400 500 Climbing FlightAware UK
11:32AM 55.8295 -4.5845 236° Southwest 1 1 4,500 667 Climbing FlightAware UK
11:32AM 55.8254 -4.5956 236° Southwest 1 1 4,800 833 Climbing FlightAware UK
11:33AM 55.8213 -4.6069 238° Southwest 1 1 5,000 833 Climbing FlightAware UK
11:33AM 55.8171 -4.6178 235° Southwest 1 1 5,300 667 Climbing FlightAware UK
11:33AM 55.8126 -4.6284 233° Southwest 1 1 5,400 833 Climbing FlightAware UK
11:34AM 55.8087 -4.6402 240° Southwest 1 1 5,800 1,000 Climbing FlightAware UK
11:34AM 55.8050 -4.6510 238° Southwest 1 1 6,000 1,000 Climbing FlightAware UK
11:34AM 55.7997 -4.6654 237° Southwest 1 1 6,500 1,000 Climbing FlightAware UK
11:35AM 55.7954 -4.6760 234° Southwest 1 1 6,700 333 Climbing FlightAware UK
11:35AM 55.7900 -4.6902 236° Southwest 1 1 6,700  Level FlightAware UK
11:35AM 55.7840 -4.7046 233° Southwest 1 1 6,700 -167 Level FlightAware UK
11:35AM 55.7775 -4.7198 233° Southwest 1 1 6,600 -167 Descending FlightAware UK
11:36AM 55.7716 -4.7346 235° Southwest 1 1 6,600 -143 Level FlightAware UK
11:36AM 55.7678 -4.7560 252° West 1 1 6,500 -286 Descending FlightAware UK
11:36AM 55.7641 -4.7719 248° West 1 1 6,400  Descending FlightAware UK
11:37AM 55.7599 -4.7871 244° Southwest 1 1 6,500 167 Climbing FlightAware UK
11:37AM 55.7549 -4.8007 237° Southwest 1 1 6,500  Level FlightAware UK
11:37AM 55.7496 -4.8143 236° Southwest 1 1 6,500 167 Level FlightAware UK
11:38AM 55.7443 -4.8281 235° Southwest 1 1 6,600 167 Climbing FlightAware UK
11:38AM 55.7393 -4.8419 237° Southwest 1 1 6,600 -333 Level FlightAware UK
11:38AM 55.7342 -4.8558 237° Southwest 1 1 6,400 167 Descending FlightAware UK
11:39AM 55.7300 -4.8706 243° Southwest 1 1 6,700 333 Climbing FlightAware UK
11:39AM 55.7245 -4.8839 234° Southwest 1 1 6,600  Descending FlightAware UK
11:39AM 55.7180 -4.8973 229° Southwest 1 1 6,700  Climbing FlightAware UK
11:39AM 55.7122 -4.9117 234° Southwest 1 1 6,600 -167 Descending FlightAware UK
11:40AM 55.7076 -4.9269 242° Southwest 1 1 6,600 167 Level FlightAware UK
11:40AM 55.7023 -4.9417 238° Southwest 1 1 6,700 -167 Climbing FlightAware UK
11:40AM 55.6967 -4.9564 236° Southwest 1 1 6,500 -167 Descending FlightAware UK
11:41AM 55.6911 -4.9716 237° Southwest 1 1 6,600 333 Climbing FlightAware UK
11:41AM 55.6856 -4.9872 238° Southwest 1 1 6,700 -167 Climbing FlightAware UK
11:41AM 55.6800 -5.0028 238° Southwest 1 1 6,500  Descending FlightAware UK
11:42AM 55.6744 -5.0185 238° Southwest 1 1 6,700 167 Climbing FlightAware UK
11:42AM 55.6664 -5.0334 226° Southwest 1 1 6,600  Descending FlightAware UK
11:42AM 55.6593 -5.0486 230° Southwest 1 1 6,700 167 Climbing FlightAware UK
11:42AM 55.6511 -5.0633 226° Southwest 1 1 6,700 -333 Level FlightAware UK
11:43AM 55.6442 -5.0784 231° Southwest 1 1 6,500 -500 Descending FlightAware UK
11:43AM 55.6373 -5.0943 232° Southwest 1 1 6,400 -333 Descending FlightAware UK
11:43AM 55.6307 -5.1103 234° Southwest 1 1 6,300 -333 Descending FlightAware UK
11:44AM 55.6246 -5.1272 237° Southwest 1 1 6,200 -500 Descending FlightAware UK
11:44AM 55.6192 -5.1441 240° Southwest 1 1 6,000 -667 Descending FlightAware UK
11:44AM 55.6138 -5.1608 241° Southwest 1 1 5,800 -667 Descending FlightAware UK
11:45AM 55.6084 -5.1768 239° Southwest 1 1 5,600 -1,000 Descending FlightAware UK
11:45AM 55.6028 -5.1922 238° Southwest 1 1 5,200 -1,000 Descending FlightAware UK
11:45AM 55.5990 -5.2074 246° West 1 1 5,000 -667 Descending FlightAware UK
11:45AM 55.5944 -5.2229 242° Southwest 1 1 4,800 -667 Descending FlightAware UK
11:46AM 55.5886 -5.2374 235° Southwest 1 1 4,600 -500 Descending FlightAware UK
11:46AM 55.5832 -5.2522 237° Southwest 1 1 4,500 -500 Descending FlightAware UK
11:46AM 55.5776 -5.2670 236° Southwest 1 1 4,300 -167 Descending FlightAware UK
11:47AM 55.5722 -5.2822 238° Southwest 1 1 4,400 167 Climbing FlightAware UK
11:47AM 55.5675 -5.2969 241° Southwest 1 1 4,400 167 Level FlightAware UK
11:47AM 55.5649 -5.3105 252° West 1 1 4,500 -167 Climbing FlightAware UK
11:48AM 55.5611 -5.3237 243° Southwest 1 1 4,300 -167 Descending FlightAware UK
11:48AM 55.5567 -5.3382 242° Southwest 1 1 4,400 167 Climbing FlightAware UK
11:48AM 55.5521 -5.3527 241° Southwest 1 1 4,400 -167 Level FlightAware UK
11:48AM 55.5482 -5.3671 244° Southwest 1 1 4,300 -333 Descending FlightAware UK
11:49AM 55.5405 -5.3802 224° Southwest 1 1 4,200 -500 Descending FlightAware UK
11:49AM 55.5259 -5.3825 185° South 1 1 4,000 -667 Descending FlightAware UK
11:49AM 55.5120 -5.3743 162° South 1 1 3,800 -833 Descending FlightAware UK
11:50AM 55.4967 -5.3632 158° South 1 1 3,500 -500 Descending FlightAware UK
11:50AM 55.4820 -5.3511 155° Southeast 1 1 3,500  Level FlightAware UK
11:50AM 55.4677 -5.3454 167° South 1 1 3,500  Level FlightAware UK
11:51AM 55.4535 -5.3406 169° South 1 1 3,500  Level FlightAware UK
11:51AM 55.4407 -5.3409 181° South 1 1 3,500 167 Level FlightAware UK
11:51AM 55.4280 -5.3450 190° South 1 1 3,600 167 Climbing FlightAware UK
11:51AM 55.4233 -5.3613 243° Southwest 1 1 3,600 -333 Level FlightAware UK
11:52AM 55.4177 -5.3753 235° Southwest 1 1 3,400 -167 Descending FlightAware UK
11:52AM 55.4156 -5.3927 258° West 1 1 3,500 333 Climbing FlightAware UK
11:52AM 55.4171 -5.4085 280° West 1 1 3,600 -167 Climbing FlightAware UK
11:53AM 55.4189 -5.4245 281° West 1 1 3,400 -167 Descending FlightAware UK
11:53AM 55.4206 -5.4402 281° West 1 1 3,500 -333 Climbing FlightAware UK
11:53AM 55.4221 -5.4557 280° West 1 1 3,200 -833 Descending FlightAware UK
11:54AM 55.4224 -5.4712 272° West 1 1 3,000 -667 Descending FlightAware UK
11:54AM 55.4207 -5.4871 259° West 1 1 2,800 -500 Descending FlightAware UK
11:54AM 55.4202 -5.5029 267° West 1 1 2,700 -500 Descending FlightAware UK
11:54AM 55.4213 -5.5169 278° West 1 1 2,500 -667 Descending FlightAware UK
11:55AM 55.4220 -5.5308 276° West 1 1 2,300 -1,000 Descending FlightAware UK
11:55AM 55.4202 -5.5449 257° West 1 1 1,900 -1,167 Descending FlightAware UK
11:55AM 55.4195 -5.5593 265° West 1 1 1,600 -333 Descending FlightAware UK
11:56AM 55.4206 -5.5732 278° West 1 1 1,700  Climbing FlightAware UK
11:56AM 55.4206 -5.5867 270° West 1 1 1,600 -500 Descending FlightAware UK
11:56AM 55.4223 -5.5980 284° West 1 1 1,400 -667 Descending FlightAware UK
11:57AM 55.4242 -5.6069 290° West 1 1 1,200 -333 Descending FlightAware UK
11:57AM 55.4255 -5.6152 286° West 1 1 1,200 -167 Level FlightAware UK
11:57AM 55.4265 -5.6223 283° West 1 1 1,100 -333 Descending FlightAware UK
11:57AM 55.4270 -5.6295 277° West 1 1 1,000 -333 Descending FlightAware UK
11:58AM 55.4288 -5.6363 296° West 1 1 900 -333 Descending FlightAware UK
11:58AM 55.4303 -5.6429 291° West 1 1 800 -286 Descending FlightAware UK
11:58AM 55.4317 -5.6507 288° West 1 1 700 -143 Descending FlightAware UK
11:59AM 55.4338 -5.6570 301° West 1 1 700  Level FlightAware UK
12:01PM 55.4372 -5.6864 281° West  Level Estimated
12:08PM 55.4372 -5.6864 16° North  Level Estimated
12:09PM 55.4372 -5.6864 16° North  Level Estimated
12:10PM 55.4372 -5.6864 16° North  Level Estimated
12:11PM 55.4372 -5.6864 16° North  Level Estimated
12:12PM 55.4372 -5.6864 16° North  Level Estimated
12:13PM 55.4372 -5.6864 16° North  Level Estimated
12:14PM 55.4372 -5.6864 16° North  Level Estimated
12:15PM 55.4372 -5.6864 16° North  Level Estimated
12:16PM 55.4372 -5.6864 16° North  Level Estimated
12:17PM 55.4372 -5.6864 16° North  Level Estimated
12:18PM 55.4372 -5.6864 16° North  Level Estimated
12:19PM 55.4372 -5.6864 16° North  Level Estimated